Parsons Landing, Santa Catalina Island Weather observations

Data are for 10 minute period ending at time listed.
 Day   Time   Solar   Ave.   Ave.  Ave.  Vector    Max.   Stn.   Total 
  of    of     Rad.   Air    Rel.  Wind   Wind     Wind   Baro. Precip. 
Year   Day            Temp.  Hum.  Speed  Dir.     Gust   Pres.         
2014   (PST)   W/m2    F      %     mph   deg.      mph    mb.    in.   
------------------------------------------------------------------------
 238   15:30  443.0    71   75.4    10    300.3    14.3    999.0   0.00  
 238   15:40  419.0    72   74.8     9    299.8    13.7    999.0   0.00  
 238   15:50  393.0    71   74.9    10    298.2    16.1    999.0   0.00  
 238   16:00  367.0    71   75.2     9    299.6    14.3    999.0   0.00  
 238   16:10  341.0    71   74.8    10    299.7    14.9    999.0   0.00  
 238   16:20  313.0    71   75.3    10    301.6    17.3    999.0   0.00  
 238   16:30  285.0    71   75.8    10    300.2    17.3    999.0   0.00  
 238   16:40  258.0    70   77.4    10    299.5    14.9    999.0   0.00  
 238   16:50  231.0    70   78.2    11    305.5    15.5    999.0   0.00  
 238   17:00  204.0    69   79.3    10    303.3    17.3    999.0   0.00  
 238   17:10  177.0    70   80.0    10    303.3    16.1    999.0   0.00  
 238   17:20  151.0    69   80.8     9    298.8    15.5    999.0   0.00  
 238   17:30  125.0    69   80.5     8    303.0    16.7    999.0   0.00  
 238   17:40  100.0    69   80.3     8    305.6    13.1    999.0   0.00  
 238   17:50   76.0    69   81.1     6    299.8    12.5    999.0   0.00  
 238   18:00   48.0    68   81.5     8    306.5    14.9    999.0   0.00  
 238   18:10   13.0    67   83.1     6    303.5    11.3    999.0   0.00  
 238   18:20    9.0    67   84.4     7    302.8    10.8    999.0   0.00  
 238   18:30    4.0    66   84.9     7    299.8    10.8    999.0   0.00  
 238   18:40    3.0    66   85.5     6    292.2    10.2    999.0   0.00  
 238   18:50    2.0    66   86.0     7    295.5    11.9    999.0   0.00  
 238   19:00    0.0    66   86.1     5    290.5    11.3    999.0   0.00  
 238   19:10    0.0    66   85.9     5    274.6     9.6    999.0   0.00  
 238   19:20    0.0    66   86.4     7    283.1    11.9    999.0   0.00  
 238   19:30    0.0    66   86.9     7    286.6    13.1    999.0   0.00  
 238   19:40    0.0    66   87.1     8    284.5    11.9    999.0   0.00  
 238   19:50    0.0    66   87.3     7    288.8    10.2    999.0   0.00  
 238   20:00    0.0    66   87.4     6    295.6     9.6    999.0   0.00  
 238   20:10    0.0    66   87.5     5    303.9     9.6    999.0   0.00  
 238   20:20    0.0    66   87.3     5    303.8     9.6    999.0   0.00  
 238   20:30    0.0    65   87.1     4    303.4     7.8    999.0   0.00  
 238   20:40    0.0    65   86.3     4    297.4     5.4    999.0   0.00  
 238   20:50    0.0    66   85.5     4    311.5     6.0    999.0   0.00  
 238   21:00    0.0    66   85.1     3    306.4     5.4    999.0   0.00  
 238   21:10    0.0    66   84.9     3    283.9     5.4    999.0   0.00  
 238   21:20    0.0    66   85.2     4    289.1     5.4    999.0   0.00  
 238   21:30    0.0    66   85.9     3    317.3     6.6    999.0   0.00  
 238   21:40    0.0    66   86.4     2    272.2     4.8    999.0   0.00  
 238   21:50    0.0    65   86.4     2    287.7     4.2    999.0   0.00  
 238   22:00    0.0    66   86.4     2    293.5     4.2    999.0   0.00  
 238   22:10    0.0    66   86.9     3    314.6     6.0    999.0   0.00  
 238   22:20    0.0    66   87.2     3    299.0     4.8    999.0   0.00  
 238   22:30    0.0    66   87.5     3    298.6     6.0    999.0   0.00  
 238   22:40    0.0    66   87.3     4    283.1     5.4    999.0   0.00  
 238   22:50    0.0    65   86.9     2    248.0     4.8    999.0   0.00  
 238   23:00    0.0    66   87.5     2    312.3     4.2    999.0   0.00  
 238   23:10    0.0    66   88.2     4    327.5     6.0    999.0   0.00  
 238   23:20    0.0    66   88.6     4    319.3     6.0    999.0   0.00  
 238   23:30    0.0    66   88.8     3    286.4     4.8    999.0   0.00  
 238   23:40    0.0    66   89.0     2    303.0     5.4    999.0   0.00  
 238   23:50    0.0    65   88.7     3    284.8     5.4    999.0   0.00  
 239    0:00    0.0    64   88.3     1    125.4     4.8    999.0   0.00  
 239    0:10    0.0    65   88.5     3    294.3     5.4    999.0   0.00  
 239    0:20    0.0    65   88.0     2    234.3     3.6    999.0   0.00  
 239    0:30    0.0    63   86.3     2    154.6     4.2    999.0   0.00  
 239    0:40    0.0    64   83.6     2    143.8     3.6    999.0   0.00  
 239    0:50    0.0    65   78.5     2    109.1     3.6    999.0   0.00  
 239    1:00    0.0    65   74.2     3    151.5     4.2    999.0   0.00  
 239    1:10    0.0    68   74.6     2     45.8     3.6    999.0   0.00  
 239    1:20    0.0    65   74.2     3    134.1     3.6    999.0   0.00  
 239    1:30    0.0    66   74.5     3    128.1     3.6    999.0   0.00  
 239    1:40    0.0    66   78.8     2    134.8     3.6    999.0   0.00  
 239    1:50    0.0    66   79.5     4    124.2     5.4    999.0   0.00  
 239    2:00    0.0    66   78.4     4    127.4     5.4    999.0   0.00  
 239    2:10    0.0    66   72.9     4    140.9     4.8    999.0   0.00  
 239    2:20    0.0    67   70.8     3    139.6     5.4    999.0   0.00  
 239    2:30    0.0    68   72.9     3    106.8     4.8    999.0   0.00  
 239    2:40    0.0    67   74.2     2    121.9     3.6    999.0   0.00  
 239    2:50    0.0    66   73.6     1    211.5     2.4    999.0   0.00  
 239    3:00    0.0    67   72.4     2    241.3     2.4    999.0   0.00  
 239    3:10    0.0    66   73.3     2    252.5     2.4    999.0   0.00  
 239    3:20    0.0    67   77.8     2    236.0     2.4    999.0   0.00  
 239    3:30    0.0    67   81.0     2    227.2     2.4    999.0   0.00  
 239    3:40    0.0    67   83.2     2    219.0     2.4    999.0   0.00  
 239    3:50    0.0    67   84.6     2    211.9     3.0    999.0   0.00  
 239    4:00    0.0    66   85.3     3    205.9     3.6    999.0   0.00  
 239    4:10    0.0    66   86.0     2    225.4     3.0    999.0   0.00  
 239    4:20    0.0    66   86.0     2    251.3     3.6    999.0   0.00  
 239    4:30    0.0    65   85.6     4    231.2     5.4    999.0   0.00  
 239    4:40    0.0    66   85.9     4    239.5     4.8    999.0   0.00  
 239    4:50    0.0    66   86.3     3    233.3     4.2    999.0   0.00  
 239    5:00    0.0    66   86.6     2    227.5     3.6    999.0   0.00  
 239    5:10    1.0    66   87.0     2    219.7     3.0    999.0   0.00  
 239    5:20    3.0    66   87.3     2    207.7     3.6    999.0   0.00  
 239    5:30    3.0    66   87.6     1    221.6     1.2    999.0   0.00  
 239    5:40    9.0    66   87.9     2    171.0     3.0    999.0   0.00  
 239    5:50   21.0    66   88.3     1    162.8     1.8    999.0   0.00  
 239    6:00   40.0    67   88.4     1    170.0     2.4    999.0   0.00  
 239    6:10   66.0    68   88.0     2    151.3     2.4    999.0   0.00  
 239    6:20   91.0    69   86.8     1    174.0     2.4    999.0   0.00  
 239    6:30  116.0    70   85.5     1    327.8     2.4    999.0   0.00  
 239    6:40  142.0    71   84.6     2    359.7     3.6    999.0   0.00  
 239    6:50  168.0    70   83.8     3    327.7     4.2    999.0   0.00  
 239    7:00  195.0    71   83.4     2    348.4     4.2    999.0   0.00  
 239    7:10  222.0    72   82.7     3    349.1     4.8    999.0   0.00  
 239    7:20  250.0    72   82.3     3    321.2     4.8    999.0   0.00  
 239    7:30  277.0    72   81.7     3    346.1     5.4    999.0   0.00  
 239    7:40  304.0    72   81.4     4    343.4     5.4    999.0   0.00  
 239    7:50  331.0    72   80.8     4    340.6     6.0    999.0   0.00  
 239    8:00  358.0    73   80.5     4    339.7     6.0    999.0   0.00  
 239    8:10  384.0    73   79.9     3    357.6     4.8    999.0   0.00  
 239    8:20  410.0    74   78.2     3    351.9     5.4    999.0   0.00  
 239    8:30  434.0    75   77.1     4    353.3     6.0    999.0   0.00  
 239    8:40  458.0    74   77.3     4    345.5     6.6    999.0   0.00  
 239    8:50  481.0    75   76.8     4    352.5     6.0    999.0   0.00  
 239    9:00  505.0    75   76.0     4    353.5     6.6    999.0   0.00  
 239    9:10  527.0    75   75.5     4    347.1     6.6    999.0   0.00  
 239    9:20  548.0    75   76.5     5    338.1     7.8    999.0   0.00  
 239    9:30  568.0    75   77.0     5    343.1     7.2    999.0   0.00  
 239    9:40  588.0    75   77.5     5    339.5     7.2    999.0   0.00  
 239    9:50  606.0    75   77.8     5    339.1     7.8    999.0   0.00  
 239   10:00  624.0    76   76.5     5    345.1     7.8    999.0   0.00  
 239   10:10  639.0    76   76.3     5    332.2     7.8    999.0   0.00  
 239   10:20  653.0    76   77.1     6    336.4     7.8    999.0   0.00  
 239   10:30  665.0    76   77.6     6    342.6     9.0    999.0   0.00  
 239   10:40  678.0    76   76.4     6    354.4     9.0    999.0   0.00  
 239   10:50  688.0    75   77.5     6    347.9     9.0    999.0   0.00  
 239   11:00  698.0    76   75.6     7    359.5     9.6    999.0   0.00  
 239   11:10  708.0    76   75.7     6    354.0     9.6    999.0   0.00  
 239   11:20  717.0    78   71.8     5      3.6     7.8    999.0   0.00  
 239   11:30  724.0    79   66.6     4    358.2     6.6    999.0   0.00  
 239   11:40  730.0    82   50.0     4    356.7     5.4    999.0   0.00  
 239   11:50  735.0    86   38.5     4     25.2     7.8    999.0   0.00  
 239   12:00  735.0    87   39.3     6     63.8     9.6    999.0   0.00  
 239   12:10  734.0    86   39.0     6     50.5     9.6    999.0   0.00  
 239   12:20  734.0    87   39.5     5     25.9     8.4    999.0   0.00  
 239   12:30  732.0    88   40.1     6     50.2     9.0    999.0   0.00  
 239   12:40  727.0    87   42.1     5     52.9     8.4    999.0   0.00  
 239   12:50  721.0    87   42.7     6     15.2     8.4    999.0   0.00  
 239   13:00  713.0    88   36.4     7    333.9    13.1    999.0   0.00  
 239   13:10  705.0    88   34.2     8    319.4    13.1    999.0   0.00  
 239   13:20  696.0    88   31.2    10    323.6    16.1    999.0   0.00  
 239   13:30  682.0    89   32.2     9    297.6    16.1    999.0   0.00  
 239   13:40  670.0    90   28.9     9    243.9    13.1    999.0   0.00  
 239   13:50  656.0    90   30.7     8    286.7    13.1    999.0   0.00  
 239   14:00  640.0    89   34.7     8    304.1    11.9    999.0   0.00  
 239   14:10  623.0    90   32.2     7    295.6    13.1    999.0   0.00  
 239   14:20  605.0    90   30.8     8    300.2    11.9    999.0   0.00  
 239   14:30  586.0    90   32.7     9    310.1    13.1    999.0   0.00  
 239   14:40  564.0    88   37.2    10    307.6    15.5    999.0   0.00  
 239   14:50  541.0    85   49.3    10    312.1    14.9    999.0   0.00  
 239   15:00  518.0    83   53.5     9    305.8    14.3    999.0   0.00  
 239   15:10  495.0    82   50.6     9    303.1    12.5    999.0   0.00  
 239   15:20  472.0    83   51.1     9    305.1    14.9    999.0   0.00  

Return to Parsons Landing graphs page.


Western Regional Climate Center,wrcc@dri.edu